Weather History for KDMN - October, 2013

Change the Weather History Date:

Saturday, October 19, 2013

  Actual Average Record
Temperature  
Mean Temperature 53 °F 60 °F  
Max Temperature 72 °F 77 °F 87 °F (1950)
Min Temperature 35 °F 44 °F 33 °F (1968)
Degree Days  
Heating Degree Days 12    
Growing Degree Days 3 (Base 50)    
Moisture  
Dew Point 24 °F    
Average Humidity 40    
Maximum Humidity 64    
Minimum Humidity 15    
Precipitation  
Precipitation 0.00 in 0.03 in 1.09 in (1972)
Month to date precipitation T 0.75  
Year to date precipitation 9.31 9.64  
Sea Level Pressure  
Sea Level Pressure 30.03 in    
Wind  
Wind Speed 7 mph (ESE)    
Max Wind Speed 17 mph    
Max Gust Speed 22 mph    
Visibility 10 miles    
Events      
T = Trace of Precipitation, MM = Missing Value Source: NWS Daily Summary

Daily Weather History Graph

Daily Weather History Graph

Search for Another Location

Airport or City:

Trip Planner

Search our weather history database for the weather conditions in past years. The results will help you decide how hot, cold, wet, or windy it might be!

Date:

Astronomy

Oct. 19, 2013 Rise Set
Actual Time 7:17 AM MDT 6:33 PM MDT
Civil Twilight 6:52 AM MDT 6:58 PM MDT
Nautical Twilight 6:24 AM MDT 7:26 PM MDT
Astronomical Twilight 5:55 AM MDT 7:55 PM MDT
Moon 7:07 PM MDT (10/19) 7:55 AM MDT (10/19)
Length of Visible Light 12h 05m
Length of Day
11h 15m
Full, 99% of the Moon is Illuminated
Oct 19
Full
Oct 26
Last Quarter
Nov 3
New
Nov 9
First Quarter
Nov 17
Full

Hourly Weather History & Observations

Time (MDT) Temp. Windchill Dew Point Humidity Pressure Visibility Wind Dir Wind Speed Gust Speed Precip Events Conditions
12:53 AM 48.9 °F - 15.1 °F 26% 29.97 in 10.0 mi East 8.1 mph - N/A   Clear
1:53 AM 48.0 °F - 16.0 °F 28% 29.99 in 10.0 mi East 12.7 mph - N/A   Clear
2:53 AM 45.0 °F 41.2 °F 21.9 °F 40% 30.02 in 10.0 mi East 6.9 mph - N/A   Clear
3:53 AM 42.1 °F 37.7 °F 25.0 °F 51% 30.03 in 10.0 mi East 6.9 mph - N/A   Clear
4:53 AM 42.1 °F 36.6 °F 24.1 °F 49% 30.04 in 10.0 mi East 9.2 mph - N/A   Clear
5:53 AM 42.1 °F 36.6 °F 28.0 °F 58% 30.06 in 10.0 mi ESE 9.2 mph - N/A   Clear
6:53 AM 35.1 °F 28.6 °F 24.1 °F 64% 30.11 in 10.0 mi ENE 8.1 mph - N/A   Clear
7:53 AM 39.9 °F 35.8 °F 26.1 °F 58% 30.13 in 10.0 mi ENE 5.8 mph - N/A   Clear
8:53 AM 48.9 °F - 27.0 °F 43% 30.13 in 10.0 mi East 8.1 mph - N/A   Clear
9:53 AM 53.1 °F - 27.0 °F 37% 30.14 in 10.0 mi East 10.4 mph - N/A   Clear
10:53 AM 57.9 °F - 28.0 °F 32% 30.12 in 10.0 mi ESE 8.1 mph - N/A   Clear
11:53 AM 60.1 °F - 28.9 °F 31% 30.11 in 10.0 mi ESE 9.2 mph - N/A   Clear
12:53 PM 64.0 °F - 27.0 °F 25% 30.06 in 10.0 mi Variable 5.8 mph - N/A   Clear
1:53 PM 66.0 °F - 27.0 °F 23% 30.01 in 10.0 mi Calm Calm - N/A   Clear
2:53 PM 69.1 °F - 24.1 °F 18% 29.99 in 10.0 mi West 5.8 mph - N/A   Clear
3:53 PM 71.1 °F - 24.1 °F 17% 29.96 in 10.0 mi SW 5.8 mph - N/A   Clear
4:53 PM 71.1 °F - 21.0 °F 15% 29.94 in 10.0 mi West 3.5 mph - N/A   Clear
5:53 PM 70.0 °F - 21.9 °F 16% 29.94 in 10.0 mi South 4.6 mph - N/A   Clear
6:53 PM 63.0 °F - 23.0 °F 22% 29.98 in 10.0 mi SSW 4.6 mph - N/A   Clear
7:53 PM 60.1 °F - 24.1 °F 25% 29.98 in 10.0 mi SSW 4.6 mph - N/A   Clear
8:53 PM 55.9 °F - 24.1 °F 29% 29.97 in 10.0 mi SSW 3.5 mph - N/A   Clear
9:53 PM 50.0 °F - 21.9 °F 33% 29.99 in 10.0 mi NNW 4.6 mph - N/A   Clear
10:53 PM 46.0 °F 42.5 °F 21.9 °F 39% 29.98 in 10.0 mi WNW 6.9 mph - N/A   Clear
11:53 PM 45.0 °F 41.2 °F 19.0 °F 36% 29.97 in 10.0 mi NW 6.9 mph - N/A   Clear